Location: Woodhurst
(52.3667°N, 0.0667°W)
Time: 00:33:11
(UTC+00:00)

NOSS 2-1 (D) - Pass Details

Date: 19 May 2025
Orbit: 378 x 1697 km, 63.3° (Epoch: 18 June)

Event Time Altitude Azimuth Distance (km) Brightness Sun altitude
Exits shadow 22:35:15 28° 114° (ESE) 809 3.8 -15.5°
Drops below altitude 10° 22:37:33 10° 65° (ENE) 1,420 5.5 -15.6°
Sets 22:39:38 0° 53° (NE) 2,258 6.7 -15.7°
